AC2JK-WX Weather Reports


time (UTC)temp
C
wind
direction
speed
KPH
gust
KPH
rain 1hr
cm
rain 24hr
cm
rain mn
cm
humidity
%
barometer
mb
20260506182210 11 245 0.0 3.2 0.00 0.00 1.12 81 1010.0
20260506181709 11 245 0.0 1.6 0.00 0.00 1.12 82 1010.0
20260506181209 11 245 1.6 1.6 0.00 0.00 1.12 83 1010.0
20260506180709 10 245 0.0 0.0 0.00 0.00 1.12 82 1010.0
20260506180210 10 245 0.0 0.0 0.00 0.00 1.12 81 1010.0
20260506175710 11 245 0.0 0.0 0.00 0.00 1.12 80 1010.0
20260506175209 11 245 0.0 0.0 0.00 0.00 1.12 82 1010.0
20260506174709 11 245 0.0 1.6 0.00 0.00 1.12 81 1010.0
20260506174211 11 245 0.0 0.0 0.00 0.00 1.12 79 1010.0
20260506173710 11 245 3.2 4.8 0.00 0.00 1.12 80 1010.0
20260506173210 11 245 0.0 0.0 0.00 0.00 1.12 80 1010.0
20260506172709 11 245 0.0 3.2 0.00 0.00 1.12 79 1010.0
20260506172209 11 245 0.0 3.2 0.00 0.00 1.12 81 1010.0
20260506171710 11 245 0.0 3.2 0.00 0.00 1.12 81 1010.0
20260506171209 11 245 1.6 1.6 0.00 0.00 1.12 81 1010.0
20260506170709 11 245 0.0 3.2 0.00 0.00 1.12 82 1010.0
20260506170210 11 245 0.0 3.2 0.00 0.00 1.12 83 1010.0
20260506165710 11 245 0.0 3.2 0.00 0.00 1.12 84 1010.0
20260506165210 10 245 1.6 1.6 0.00 0.00 1.12 83 1010.0
20260506164709 10 245 1.6 1.6 0.00 0.00 1.12 83 1010.0
20260506164209 10 245 1.6 1.6 0.00 0.00 1.12 82 1010.0
20260506163710 10 245 1.6 1.6 0.00 0.00 1.12 83 1010.0
20260506163211 11 245 1.6 4.8 0.00 0.00 1.12 85 1010.0
20260506162709 10 245 0.0 1.6 0.00 0.00 1.12 87 1010.0
20260506162211 10 245 0.0 0.0 0.00 0.00 1.12 87 1010.0
20260506161710 10 245 1.6 1.6 0.00 0.00 1.12 87 1010.0
20260506161210 10 245 1.6 3.2 0.00 0.00 1.12 88 1010.0
20260506160709 10 245 0.0 1.6 0.00 0.00 1.12 89 1010.0
20260506160210 10 245 0.0 4.8 0.00 0.00 1.12 88 1010.0
20260506155709 10 245 1.6 1.6 0.00 0.00 1.12 90 1010.0
20260506155210 10 245 0.0 3.2 0.00 0.00 1.12 90 1010.0
20260506154709 10 245 0.0 1.6 0.00 0.00 1.12 90 1010.0
20260506154209 10 245 3.2 3.2 0.00 0.00 1.12 91 1010.0
20260506153709 9 245 1.6 1.6 0.00 0.00 1.12 91 1010.0
20260506153210 9 245 1.6 3.2 0.00 0.00 1.12 91 1010.0
20260506152709 9 245 3.2 3.2 0.00 0.00 1.12 92 1010.0
20260506152210 9 245 0.0 0.0 0.00 0.00 1.12 93 1010.0
20260506151710 9 245 0.0 0.0 0.00 0.00 1.12 93 1010.0
20260506151209 9 245 0.0 0.0 0.00 0.00 1.12 94 1010.0
20260506150711 9 245 0.0 0.0 0.03 0.00 1.12 95 1010.0
20260506150210 9 245 0.0 1.6 0.03 0.00 1.12 95 1010.0
20260506145709 9 245 0.0 1.6 0.03 0.00 1.12 95 1010.0
20260506145209 9 245 0.0 1.6 0.03 0.00 1.12 95 1010.0
20260506144709 9 245 0.0 1.6 0.03 0.00 1.12 96 1010.0
20260506144213 8 245 4.8 4.8 0.03 0.00 1.12 96 1010.0
20260506143709 8 245 0.0 3.2 0.03 0.00 1.12 96 1010.0
20260506143210 8 245 0.0 1.6 0.03 0.00 1.12 97 1010.0
20260506142709 8 245 1.6 3.2 0.05 0.00 1.12 96 1010.0
20260506142210 8 245 0.0 1.6 0.05 0.00 1.12 97 1010.0
20260506141300 8 245 0.0 3.2 0.05 0.00 1.12 97 1010.0
20260506140711 8 245 0.0 1.6 0.03 0.00 1.09 97 1010.0
20260506140210 8 245 1.6 1.6 0.03 0.00 1.09 97 1010.0
20260506135709 8 245 0.0 1.6 0.03 0.00 1.09 97 1010.0
20260506135209 8 245 0.0 1.6 0.03 0.00 1.09 97 1010.0
20260506134710 8 245 1.6 1.6 0.03 0.00 1.09 97 1009.0
20260506134209 8 245 0.0 3.2 0.03 0.00 1.09 97 1009.0
20260506133709 8 245 0.0 1.6 0.03 0.00 1.09 97 1009.0
20260506133209 7 245 1.6 1.6 0.00 0.00 1.09 97 1009.0
20260506132715 7 245 0.0 1.6 0.00 0.00 1.07 97 1009.0
20260506132210 7 245 0.0 1.6 0.03 0.00 1.07 97 1009.0
20260506131709 7 245 1.6 1.6 0.03 0.00 1.07 98 1009.0
20260506131209 7 245 0.0 1.6 0.03 0.00 1.07 97 1009.0
20260506130709 7 245 0.0 1.6 0.03 0.00 1.07 97 1009.0
20260506130210 7 245 1.6 4.8 0.03 0.00 1.07 98 1009.0
20260506125711 7 245 1.6 1.6 0.03 0.00 1.07 98 1009.0
20260506125211 7 245 0.0 1.6 0.03 0.00 1.07 98 1009.0
20260506124709 7 245 0.0 1.6 0.05 0.00 1.07 98 1009.0
20260506124209 7 245 1.6 1.6 0.05 0.00 1.07 98 1009.0
20260506123709 7 245 0.0 1.6 0.05 0.00 1.07 98 1009.0
20260506123209 7 245 0.0 1.6 0.05 0.00 1.07 98 1009.0
20260506122709 7 245 1.6 1.6 0.05 0.00 1.07 98 1009.0
20260506122210 7 245 1.6 3.2 0.05 0.00 1.04 98 1009.0
20260506121710 7 245 0.0 1.6 0.05 0.00 1.04 98 1009.0
20260506121210 7 245 0.0 1.6 0.05 0.00 1.04 98 1009.0
20260506120709 7 245 0.0 1.6 0.08 0.00 1.04 98 1009.0
20260506120210 7 245 0.0 1.6 0.08 0.00 1.04 98 1009.0
20260506115710 7 245 0.0 1.6 0.08 0.00 1.04 98 1009.0
20260506115210 7 245 1.6 1.6 0.08 0.00 1.04 98 1009.0
20260506114709 7 245 0.0 0.0 0.08 0.00 1.02 98 1009.0
20260506114210 8 245 1.6 1.6 0.08 0.00 1.02 98 1009.0
20260506113712 8 245 0.0 0.0 0.08 0.00 1.02 98 1009.0
20260506113209 8 245 1.6 1.6 0.08 0.00 1.02 98 1009.0
20260506112712 8 245 0.0 0.0 0.08 0.00 1.02 98 1008.0
20260506112210 7 245 0.0 0.0 0.05 0.00 0.99 98 1009.0
20260506111711 7 245 0.0 3.2 0.08 0.00 0.99 98 1008.0
20260506111210 7 245 1.6 1.6 0.08 0.00 0.99 98 1009.0
20260506110709 7 245 0.0 0.0 0.05 0.00 0.97 98 1009.0
20260506110211 7 245 0.0 0.0 0.05 0.00 0.97 98 1009.0
20260506105710 7 245 0.0 1.6 0.08 0.00 0.97 98 1009.0
20260506105211 7 245 0.0 1.6 0.08 0.00 0.97 98 1009.0
20260506104714 7 245 0.0 4.8 0.08 0.00 0.94 98 1009.0
20260506104209 7 245 1.6 1.6 0.08 0.00 0.94 98 1009.0
20260506103712 7 245 0.0 1.6 0.10 0.00 0.94 98 1008.0
20260506103211 7 245 0.0 1.6 0.10 0.00 0.94 98 1009.0
20260506102710 7 245 1.6 1.6 0.10 0.00 0.94 98 1009.0
20260506102210 7 245 0.0 0.0 0.13 0.00 0.94 98 1008.0
20260506101710 7 245 0.0 1.6 0.10 0.00 0.91 98 1008.0
20260506101210 7 245 0.0 0.0 0.10 0.00 0.91 98 1008.0
20260506100711 7 245 0.0 1.6 0.13 0.00 0.91 98 1008.0
20260506100212 7 245 3.2 3.2 0.10 0.00 0.89 98 1009.0
20260506095709 7 245 1.6 3.2 0.13 0.00 0.89 98 1009.0
20260506095209 8 245 0.0 1.6 0.15 0.00 0.89 98 1009.0
20260506094709 8 245 0.0 1.6 0.13 0.00 0.86 98 1009.0
20260506094210 8 245 0.0 1.6 0.15 0.00 0.86 98 1009.0
20260506093711 7 245 1.6 1.6 0.13 0.00 0.84 98 1009.0
20260506093209 7 245 0.0 1.6 0.13 0.00 0.84 98 1009.0
20260506092709 8 245 1.6 3.2 0.13 0.00 0.81 98 1009.0
20260506092209 8 245 1.6 1.6 0.13 0.00 0.81 98 1009.0
20260506091709 8 245 0.0 3.2 0.15 0.00 0.81 98 1009.0
20260506091212 8 245 0.0 1.6 0.15 0.00 0.79 99 1009.0
20260506090710 8 245 1.6 3.2 0.15 0.00 0.79 98 1009.0
20260506090209 8 245 3.2 3.2 0.15 0.00 0.76 98 1009.0
20260506085709 8 245 0.0 1.6 0.15 0.00 0.76 99 1009.0
20260506085210 8 245 0.0 1.6 0.15 0.00 0.74 99 1009.0
20260506084709 8 245 0.0 1.6 0.15 0.00 0.71 99 1009.0
20260506084211 8 245 1.6 1.6 0.15 0.00 0.71 99 1009.0
20260506083709 8 245 4.8 4.8 0.15 0.00 0.71 99 1009.0
20260506083211 8 245 1.6 1.6 0.18 0.00 0.71 99 1008.0
20260506082709 8 245 0.0 1.6 0.15 0.00 0.69 98 1008.0
20260506082210 8 245 0.0 1.6 0.13 0.00 0.66 98 1008.0
20260506081710 8 245 0.0 1.6 0.15 0.00 0.66 99 1009.0
20260506081210 8 245 0.0 0.0 0.13 0.00 0.64 99 1009.0
20260506080709 8 245 1.6 1.6 0.13 0.00 0.64 99 1008.0
20260506080210 8 245 1.6 1.6 0.13 0.00 0.61 99 1008.0
20260506073210 9 245 0.0 0.0 0.13 0.00 0.53 98 1009.0
20260506072709 9 245 0.0 1.6 0.13 0.00 0.53 98 1009.0
20260506072209 9 245 0.0 1.6 0.13 0.00 0.53 98 1008.0
20260506071710 9 245 0.0 1.6 0.13 0.00 0.51 98 1009.0
20260506071210 9 245 3.2 3.2 0.13 0.00 0.51 98 1009.0
20260506070709 9 245 0.0 1.6 0.13 0.00 0.51 98 1009.0
20260506070210 9 245 0.0 1.6 0.10 0.00 0.48 98 1009.0
20260506062209 9 245 0.0 0.0 0.08 0.00 0.38 98 1009.0
20260506061709 9 245 1.6 1.6 0.10 0.00 0.38 98 1009.0
20260506061209 9 245 0.0 1.6 0.13 0.00 0.38 98 1009.0
20260506060709 9 245 1.6 1.6 0.13 0.00 0.38 98 1009.0
20260506060210 9 245 0.0 1.6 0.18 0.00 0.38 98 1009.0
20260506051209 9 245 1.6 1.6 0.23 0.00 0.25 98 1010.0
20260506050710 9 245 0.0 1.6 0.23 0.00 0.25 98 1010.0
20260506050210 9 245 1.6 1.6 0.20 0.00 0.20 98 1010.0
20260506044710 9 245 0.0 1.6 0.13 0.00 0.13 97 1010.0
20260506044209 9 245 0.0 1.6 0.10 0.00 0.10 98 1010.0
20260506043709 9 245 0.0 1.6 0.10 0.00 0.10 98 1009.0
20260506043209 9 245 0.0 1.6 0.08 0.00 0.08 97 1009.0
20260506042709 9 245 1.6 1.6 0.05 0.00 0.05 98 1009.0
20260506042209 9 245 0.0 1.6 0.05 0.00 0.05 97 1009.0
20260506041709 10 245 1.6 1.6 0.05 0.00 0.03 97 1009.0
20260506041209 9 245 0.0 1.6 0.05 0.00 0.03 98 1009.0
20260506040710 9 245 0.0 1.6 0.05 0.00 0.00 97 1009.0
20260506040210 9 245 1.6 1.6 0.05 0.00 1.50 97 1009.0
20260506035710 9 245 0.0 1.6 0.08 0.00 1.50 97 1009.0
20260506035217 9 245 1.6 1.6 0.10 0.00 1.50 97 1009.0
20260506034710 9 245 1.6 1.6 0.10 0.00 1.50 97 1009.0
20260506034211 9 245 0.0 1.6 0.13 0.00 1.50 97 1009.0
20260506033709 10 245 1.6 1.6 0.13 0.00 1.50 97 1009.0
20260506033209 10 245 1.6 1.6 0.15 0.00 1.50 97 1009.0
20260506032709 9 245 0.0 1.6 0.15 0.00 1.50 97 1009.0
20260506032210 9 245 1.6 1.6 0.18 0.00 1.50 97 1010.0
20260506031710 10 245 1.6 1.6 0.15 0.00 1.47 97 1010.0
20260506031210 10 245 0.0 1.6 0.15 0.00 1.47 97 1009.0
20260506030710 10 245 0.0 1.6 0.13 0.00 1.45 97 1010.0
20260506030210 10 245 1.6 1.6 0.15 0.00 1.45 97 1010.0
20260506025709 10 245 0.0 0.0 0.13 0.00 1.42 97 1010.0
20260506025210 10 245 0.0 1.6 0.10 0.00 1.40 97 1010.0
20260506024710 10 245 1.6 1.6 0.10 0.00 1.40 97 1010.0
20260506024209 9 245 0.0 1.6 0.08 0.00 1.37 97 1010.0
20260506023709 9 245 0.0 1.6 0.08 0.00 1.37 97 1010.0
20260506023210 9 245 0.0 1.6 0.05 0.00 1.35 97 1010.0
20260506022710 9 245 1.6 1.6 0.05 0.00 1.35 97 1010.0
20260506022209 9 245 0.0 1.6 0.05 0.00 1.32 97 1010.0
20260506021709 10 245 0.0 1.6 0.05 0.00 1.32 97 1010.0
20260506021210 10 245 1.6 1.6 0.05 0.00 1.32 97 1010.0
20260506020709 9 245 0.0 1.6 0.05 0.00 1.32 97 1010.0
20260506020210 9 245 0.0 1.6 0.03 0.00 1.30 97 1010.0
20260506015710 9 245 1.6 1.6 0.05 0.00 1.30 97 1010.0
20260506015209 9 245 0.0 1.6 0.05 0.00 1.30 97 1010.0
20260506014709 9 245 0.0 1.6 0.05 0.00 1.30 96 1010.0
20260506014209 9 245 1.6 1.6 0.08 0.00 1.30 96 1010.0
20260506013710 10 245 1.6 1.6 0.10 0.00 1.30 96 1010.0
20260506013209 10 245 0.0 1.6 0.13 0.00 1.30 96 1010.0
20260506012709 10 245 1.6 3.2 0.13 0.00 1.27 96 1010.0
20260506012210 10 245 0.0 3.2 0.15 0.00 1.27 96 1010.0
20260506011712 10 245 0.0 0.0 0.18 0.00 1.27 96 1010.0
20260506011210 9 245 0.0 0.0 0.20 0.00 1.27 96 1010.0
20260506010711 9 245 0.0 0.0 0.25 0.00 1.27 96 1010.0
20260506010210 9 245 0.0 0.0 0.25 0.00 1.24 96 1010.0
20260506005710 9 245 0.0 0.0 0.28 0.00 1.24 96 1010.0
20260506005211 9 245 0.0 0.0 0.30 0.00 1.24 96 1010.0
20260506004709 9 245 0.0 0.0 0.36 0.00 1.24 96 1010.0
20260506004209 9 245 0.0 1.6 0.36 0.00 1.22 96 1010.0
20260506003709 9 245 0.0 1.6 0.36 0.00 1.19 96 1010.0
20260506003209 9 245 1.6 3.2 0.36 0.00 1.17 96 1010.0
20260506002713 9 245 0.0 3.2 0.36 0.00 1.14 95 1010.0
20260506002210 9 245 0.0 1.6 0.30 0.00 1.09 95 1010.0
20260506001709 10 245 1.6 1.6 0.30 0.00 1.07 95 1010.0
20260506001209 9 245 0.0 1.6 0.30 0.00 1.04 95 1010.0
20260506000709 10 245 1.6 1.6 0.28 0.00 1.02 95 1010.0
20260506000211 10 245 1.6 1.6 0.28 0.00 0.99 95 1010.0
20260505235709 10 245 0.0 1.6 0.25 0.00 0.97 95 1010.0
20260505235209 10 245 0.0 1.6 0.23 0.00 0.91 95 1010.0
20260505234709 10 245 0.0 1.6 0.23 0.00 0.89 95 1009.0
20260505234209 10 245 0.0 0.0 0.20 0.00 0.86 95 1009.0
20260505233711 10 245 0.0 0.0 0.20 0.00 0.84 95 1009.0
20260505233210 10 245 0.0 1.6 0.20 0.00 0.81 95 1009.0
20260505232709 10 245 1.6 1.6 0.18 0.00 0.79 95 1009.0
20260505232210 10 245 0.0 1.6 0.20 0.00 0.79 95 1009.0
20260505231709 10 245 0.0 1.6 0.18 0.00 0.76 95 1009.0
20260505231210 10 245 1.6 1.6 0.18 0.00 0.74 95 1009.0
20260505230709 10 245 0.0 1.6 0.20 0.00 0.74 95 1009.0
20260505230210 10 245 0.0 1.6 0.20 0.00 0.71 95 1009.0
20260505225709 10 245 1.6 4.8 0.18 0.00 0.69 95 1009.0
20260505225209 10 245 4.8 6.4 0.23 0.00 0.69 94 1009.0
20260505224709 10 245 0.0 3.2 0.23 0.00 0.66 94 1009.0
20260505224209 10 245 3.2 4.8 0.23 0.00 0.66 94 1009.0
20260505223709 10 245 3.2 3.2 0.23 0.00 0.64 94 1009.0
20260505223209 10 245 0.0 1.6 0.23 0.00 0.61 94 1009.0
20260505222709 10 245 3.2 3.2 0.25 0.00 0.61 94 1009.0
20260505222209 10 245 3.2 4.8 0.28 0.00 0.58 93 1009.0
20260505221709 10 245 1.6 3.2 0.30 0.00 0.56 93 1009.0
20260505221211 10 245 1.6 4.8 0.33 0.00 0.56 93 1009.0
20260505220709 10 245 1.6 4.8 0.33 0.00 0.53 93 1010.0
20260505220209 10 245 0.0 1.6 0.33 0.00 0.51 94 1009.0
20260505215709 10 245 4.8 4.8 0.33 0.00 0.48 93 1009.0
20260505215210 10 245 8.0 8.0 0.33 0.00 0.46 93 1009.0
20260505214710 10 245 1.6 6.4 0.30 0.00 0.43 93 1009.0
20260505214210 11 245 1.6 9.7 0.30 0.00 0.41 93 1009.0
20260505213709 11 245 6.4 11.3 0.28 0.00 0.38 93 1009.0
20260505213209 11 245 0.0 4.8 0.25 0.00 0.38 94 1009.0
20260505212710 11 245 1.6 3.2 0.23 0.00 0.33 94 1009.0
20260505212209 11 245 3.2 3.2 0.20 0.00 0.33 94 1008.0
20260505211709 11 245 8.0 9.7 0.15 0.00 0.25 94 1009.0
20260505211212 11 245 4.8 4.8 0.13 0.00 0.23 93 1008.0
20260505210711 11 245 3.2 6.4 0.08 0.00 0.20 93 1008.0
20260505210210 11 245 3.2 6.4 0.08 0.00 0.18 92 1008.0
20260505205709 11 245 6.4 9.7 0.05 0.00 0.15 92 1008.0
20260505205209 11 245 4.8 4.8 0.03 0.00 0.13 91 1008.0
20260505204709 11 245 3.2 9.7 0.03 0.00 0.13 89 1008.0
20260505204210 12 245 6.4 8.0 0.00 0.00 0.10 88 1008.0
20260505203709 12 245 1.6 9.7 0.00 0.00 0.10 86 1008.0
20260505203210 12 245 4.8 4.8 0.00 0.00 0.10 85 1007.0
20260505202709 12 245 3.2 3.2 0.00 0.00 0.10 84 1007.0
20260505202210 12 245 4.8 4.8 0.00 0.00 0.10 84 1007.0
20260505201709 12 245 3.2 9.7 0.00 0.00 0.10 84 1007.0
20260505201210 12 245 8.0 8.0 0.00 0.00 0.10 85 1007.0
20260505200710 12 245 3.2 6.4 0.00 0.00 0.10 85 1007.0
20260505200210 12 245 4.8 9.7 0.00 0.00 0.10 85 1007.0
20260505195709 12 245 11.3 11.3 0.00 0.00 0.10 85 1007.0
20260505195211 12 245 12.9 12.9 0.00 0.00 0.10 83 1007.0
20260505194710 12 245 6.4 14.5 0.00 0.00 0.10 81 1007.0
20260505194209 13 245 6.4 9.7 0.00 0.00 0.10 77 1007.0
20260505193710 13 245 8.0 12.9 0.00 0.00 0.10 76 1007.0
20260505193211 14 245 12.9 12.9 0.00 0.00 0.10 75 1006.0
20260505192711 15 245 14.5 14.5 0.00 0.00 0.10 73 1006.0
20260505192210 16 245 4.8 9.7 0.00 0.00 0.10 70 1006.0
20260505191710 17 245 9.7 12.9 0.00 0.00 0.10 65 1006.0
20260505191210 18 245 9.7 11.3 0.00 0.00 0.10 64 1006.0
20260505190710 18 245 6.4 14.5 0.00 0.00 0.10 64 1006.0
20260505190209 18 245 9.7 16.1 0.00 0.00 0.10 62 1006.0
20260505185709 19 245 11.3 20.9 0.00 0.00 0.10 61 1006.0
20260505185215 19 245 20.9 20.9 0.00 0.00 0.10 60 1006.0
20260505184709 20 245 6.4 8.0 0.00 0.00 0.10 60 1006.0
20260505184210 19 245 9.7 11.3 0.00 0.00 0.10 60 1006.0
20260505183709 20 245 11.3 12.9 0.00 0.00 0.10 59 1006.0
20260505183210 20 245 8.0 9.7 0.00 0.00 0.10 59 1006.0
20260505182709 20 245 8.0 20.9 0.00 0.00 0.10 59 1006.0